Regional Weather Roundup
Issued by NWS

Home | Current Version | Previous Version | Text Only | Print | Product List | Glossary Off
Versions: 1 2 3 4 5 6 7 8 9 10 11 12 13 14 15 16 17 18 19 20 21 22 23 24 25 26 27 28 29 30 31 32 33 34 35 36 37 38 39 40 41 42 43 44 45 46 47 48 49 50

000
ASUS45 KSLC 030810
RWRUT

UTAH REGIONAL WEATHER ROUNDUP
NATIONAL WEATHER SERVICE SALT LAKE CITY UT
100 AM MST TUE MAR 03 2015

UTZ001>011-023>025-030900-

NORTHERN UTAH

CITY           SKY/WX    TMP DP  RH WIND       PRES   REMARKS
BRIGHAM CITY   CLOUDY    34  32  93 CALM      29.80S
HILL AFB       CLOUDY    32  32 100 SE5       29.79S WCI  27
LOGAN          MOCLDY    31  28  89 SE8       29.77S WCI  23
OGDEN          CLOUDY    33  32  96 SE6       29.79S WCI  28
PROVO AIRPORT  CLOUDY    36  30  80 W8        29.83S WCI  29
SALT LAKE CITY PTCLDY    33  31  92 S8        29.77F WCI  26
VERNAL         CLOUDY    32  31  96 E6        29.72S WCI  26
WENDOVER       CLOUDY    36  28  75 NW7       29.81S WCI  30
HEBER CITY     CLOUDY    30  28  93 CALM      29.78R
WEST JORDAN    MOCLDY    32  32 100 S6        29.81S WCI  26

$$

UTZ012>022-026-027-030900-

SOUTHERN/CENTRAL UTAH

CITY           SKY/WX    TMP DP  RH WIND       PRES   REMARKS
BLANDING       CLEAR     29  28  99 S8        29.97F WCI  21
BRYCE CANYON   PTCLDY     6   4  91 SW8       29.88R WCI  -7
CEDAR CITY     CLOUDY    31  28  89 SW5       29.88F WCI  26
DELTA          CLOUDY    32  32  98 S10       29.85S WCI  24
HANKSVILLE     CLEAR     37  28  70 SW10G16   29.84S WCI  30
MILFORD        MOCLDY    31  26  82 S14       29.87F WCI  21
MOAB/CYNLANDS  PTCLDY    36  29  75 CALM      29.81R
PRICE          LGT SNOW  32  28  85 NE5       29.77R FOG     WCI  27
ST GEORGE      PTSUNNY   39  36  87 SW3       29.97S
KANAB            N/A     32  32 100 CALM      29.96S

$$

REGIONAL REPORTS     COLORADO/ARIZONA

CITY           SKY/WX    TMP DP  RH WIND       PRES   REMARKS
CRAIG, CO      MOCLDY    33  26  75 SW20      29.69R WCI  21
GRAND JUNCTION PTCLDY    38  24  57 NW6       29.78S WCI  33
RIFLE          CLOUDY    36  28  73 W8        29.76S WCI  30
MONTROSE       PTCLDY    36  24  62 SW15G28   29.84F WCI  27
CORTEZ         CLOUDY    34  28  79 S10       29.92F WCI  26
PAGE, AZ       NOT AVBL
GRAND CANYON   CLOUDY    29  28  96 SW7       29.95F WCI  22
KINGMAN        CLEAR     34  32  92 CALM      29.96F
FLAGSTAFF      NOT AVBL

$$

REGIONAL REPORTS    NEVADA/IDAHO/WYOMING

CITY           SKY/WX    TMP DP  RH WIND       PRES   REMARKS
LAS VEGAS, NV  CLEAR     46  36  68 N6        29.89S
ELY            MOCLDY    20  18  92 S9        29.87S WCI   9
ELKO           CLOUDY    33  27  78 W5        29.82R WCI  29
POCATELLO, ID  CLEAR     33  20  58 SW18      29.71S WCI  22
BURLEY         CLOUDY    34  20  56 W22G30    29.74R WCI  22
EVANSTON, WY   MOCLDY    23  18  81 W15       29.73R WCI  10
ROCK SPRINGS   MOCLDY    24  21  88 W25       29.66R WCI   8
KEMMERER       LGT SNOW  23  23 100 W17       29.69R WCI   9

$$


USA.gov is the U.S. government's official web portal to all federal, state and local government web resources and services.